CW3648 Weather Reports


Display with metric or nautical units.
time (UTC)temp
F
wind
direction
speed
MPH
gust
MPH
rain 1hr
in
rain 24hr
in
rain mn
in
humidity
%
barometer
mb
20200225221555 50 65 0.0 0.0 0.00 0.00 0.00 93 1006.7
20200225214554 50 65 0.0 0.0 0.00 0.00 0.00 93 1006.6
20200225213210 50 65 0.0 0.0 0.00 0.00 0.00 93 1006.4
20200225211538 51 65 0.0 0.0 0.00 0.00 0.00 93 1006.5
20200225210145 51 65 0.0 0.0 0.00 0.00 0.00 93 1006.4
20200225204534 50 65 0.0 0.0 0.00 0.00 0.00 93 1006.1
20200225203057 51 32 0.0 0.0 0.00 0.00 0.00 93 1006.1
20200225201527 51 32 0.0 0.0 0.00 0.00 0.00 93 1006.3
20200225200120 50 32 0.0 0.0 0.00 0.00 0.00 93 1006.1
20200225194543 51 86 0.0 0.0 0.00 0.00 0.27 93 1006.1
20200225193108 51 86 0.0 0.0 0.00 0.00 0.27 93 1006.1
20200225191636 50 86 0.0 0.0 0.00 0.00 0.27 92 1006.2
20200225190015 50 356 0.0 0.0 0.00 0.00 0.27 92 1006.1
20200225184621 50 356 0.0 0.0 0.00 0.00 0.27 94 1006.1
20200225183144 50 278 0.0 0.0 0.00 0.00 0.27 93 1006.5
20200225181636 50 278 0.0 0.0 0.00 0.00 0.27 93 1006.7
20200225180104 49 278 0.0 0.0 0.00 0.00 0.27 93 1006.9
20200225174636 49 252 0.0 0.0 0.00 0.00 0.27 93 1007.1
20200225173055 49 252 0.0 0.0 0.00 0.00 0.27 93 1007.2
20200225171721 49 218 0.0 0.0 0.00 0.00 0.27 93 1007.4
20200225170054 49 257 0.0 0.0 0.00 0.00 0.27 94 1007.6
20200225164754 48 149 0.0 0.0 0.00 0.00 0.27 93 1007.6
20200225163045 48 248 0.0 0.0 0.00 0.00 0.27 94 1007.7
20200225161522 48 131 0.0 0.0 0.00 0.00 0.27 94 1007.7
20200225160110 48 107 0.0 0.0 0.00 0.00 0.27 94 1007.9
20200225154552 47 117 0.0 0.0 0.00 0.00 0.27 94 1008.0
20200225153018 47 149 0.0 0.0 0.00 0.00 0.25 94 1008.1
20200225151549 47 151 0.0 0.0 0.00 0.00 0.23 94 1008.2
20200225144621 47 91 0.0 0.0 0.00 0.00 0.21 95 1008.3
20200225143023 46 76 0.0 0.0 0.00 0.00 0.21 95 1008.6
20200225141617 46 76 0.0 0.0 0.00 0.00 0.21 95 1008.5
20200225140046 46 129 0.0 0.0 0.00 0.00 0.21 95 1008.7
20200225134621 45 129 0.0 0.0 0.00 0.00 0.18 95 1008.7
20200225133203 45 136 0.0 0.0 0.00 0.00 0.16 95 1008.4
20200225131641 45 102 0.0 0.0 0.00 0.00 0.15 95 1008.5
20200225130055 45 145 0.0 0.0 0.00 0.00 0.14 95 1008.7
20200225124551 45 96 0.0 0.0 0.00 0.00 0.13 94 1008.7
20200225123219 45 158 0.0 0.0 0.00 0.00 0.12 94 1008.9
20200225121552 44 158 0.0 0.0 0.00 0.00 0.11 94 1008.8
20200225120009 44 158 0.0 0.0 0.00 0.00 0.09 94 1008.7
20200225114646 44 158 0.0 0.0 0.00 0.00 0.08 94 1008.9
20200225113031 44 158 0.0 0.0 0.00 0.00 0.06 93 1008.8
20200225111851 44 158 0.0 0.0 0.00 0.00 0.05 93 1008.9
20200225110117 44 158 0.0 0.0 0.00 0.00 0.03 93 1009.0
20200225104516 44 158 0.0 0.0 0.00 0.00 0.02 93 1009.1
20200225103128 44 158 0.0 0.0 0.00 0.00 0.01 92 1008.9
20200225101623 44 158 0.0 0.0 0.00 0.00 0.01 92 1008.7
20200225100143 44 158 0.0 0.0 0.00 0.00 0.01 92 1008.7
20200225094634 44 154 0.0 0.0 0.00 0.00 0.01 92 1008.8
20200225093034 44 167 0.0 0.0 0.00 0.00 0.01 90 1008.8
20200225091616 44 167 0.0 0.0 0.00 0.00 0.00 89 1008.9
20200225090044 45 167 0.0 0.0 0.00 0.00 0.00 89 1008.8
20200225084641 45 247 0.0 0.0 0.00 0.00 0.00 87 1009.1
20200225083029 46 247 0.0 0.0 0.00 0.00 0.00 85 1009.3
20200225081643 46 224 0.0 0.0 0.00 0.00 0.00 85 1008.8
20200225080045 46 112 0.0 0.0 0.00 0.00 0.00 85 1009.4
20200225074747 46 98 0.0 0.0 0.00 0.00 0.00 84 1009.7
20200225073049 46 238 0.0 0.0 0.00 0.00 0.00 84 1009.6
20200225071519 46 92 0.0 0.0 0.00 0.00 0.00 83 1010.2
20200225070121 46 172 0.0 0.0 0.00 0.00 0.00 83 1010.6
20200225064535 46 99 0.0 0.0 0.00 0.00 0.00 83 1010.6
20200225061653 46 240 0.0 0.0 0.00 0.00 0.00 83 1010.4
20200225060036 46 269 0.0 0.0 0.00 0.00 0.00 82 1010.2
20200225054551 46 123 1.0 0.0 0.00 0.00 0.00 80 1010.0
20200225053118 46 148 0.0 0.0 0.00 0.00 0.00 79 1009.7
20200225051707 46 170 0.0 0.0 0.00 0.00 0.00 78 1009.8
20200225050021 46 174 0.0 0.0 0.00 0.00 0.00 77 1010.1
20200225044612 46 151 0.0 0.0 0.00 0.00 0.00 76 1010.4
20200225043044 47 236 0.0 0.0 0.00 0.00 0.00 76 1010.6
20200225041611 47 245 0.0 0.0 0.00 0.00 0.00 74 1010.6
20200225040157 47 241 0.0 0.0 0.00 0.00 0.00 73 1010.8
20200225034525 47 282 0.0 0.0 0.00 0.00 0.00 72 1010.8
20200225033049 48 217 0.0 0.0 0.00 0.00 0.00 71 1010.9
20200225031526 48 113 1.0 0.0 0.00 0.00 0.00 70 1011.0
20200225030107 48 227 0.0 0.0 0.00 0.00 0.00 69 1011.4
20200225024620 48 205 0.0 0.0 0.00 0.00 0.00 66 1011.8
20200225023111 48 125 0.0 0.0 0.00 0.00 0.00 63 1011.8
20200225021508 48 137 0.0 0.0 0.00 0.00 0.00 62 1011.8
20200225020151 48 235 0.0 0.0 0.00 0.00 0.00 61 1011.8
20200225014632 49 223 0.0 0.0 0.00 0.00 0.00 60 1011.8
20200225013313 49 212 0.0 0.0 0.00 0.00 0.00 58 1011.9
20200225011804 50 156 0.0 0.0 0.00 0.00 0.00 56 1012.0
20200225004648 50 143 0.0 0.0 0.00 0.00 0.00 55 1012.1
20200225003102 51 147 0.0 0.0 0.00 0.00 0.00 53 1012.1
20200225001530 51 235 0.0 0.0 0.00 0.00 0.00 53 1012.0
20200225000207 51 150 0.0 0.0 0.00 0.00 0.00 52 1011.8
20200224234632 52 120 0.0 0.0 0.00 0.00 0.00 50 1011.9
20200224233210 52 226 0.0 0.0 0.00 0.00 0.00 49 1011.5
20200224231528 53 147 0.0 0.0 0.00 0.00 0.00 47 1011.6
20200224230100 53 226 0.0 0.0 0.00 0.00 0.00 46 1011.7
20200224224600 53 218 0.0 0.0 0.00 0.00 0.00 46 1011.7
20200224223113 54 237 0.0 0.0 0.00 0.00 0.00 45 1011.5